Tracking 19170 objects as of 23-May-2018
HD Live streaming from Space Station
objects crossing your sky now

GORIZONT 13

Track GORIZONT 13 now!
GORIZONT 13 is classified as:


NORAD ID: 17083
Int'l Code: 1986-090A
Perigee: 36,737.3 km
Apogee: 36,899.0 km
Inclination: 15.8 °
Period: 1,488.7 minutes
Semi major axis: 43189 km
RCS: 2.5139 m2 (large)
Launch date: November 18, 1986
Source: Commonwealth of Independent States (former USSR) (CIS)
Launch site: TYURATAM MISSILE AND SPACE COMPLEX (TTMTR)
aabbcc
Your satellite tracking list
Your tracking list is empty




NASA's NSSDC Master Catalog

Two Line Element Set (TLE):
1 17083U 86090A   18142.20865990 -.00000099 +00000-0 +00000-0 0  9996
2 17083 015.7686 352.1547 0018722 298.9901 072.9929 00.96725480090131
Source of the keplerian elements: AFSPC